This demonstration page uses our WeatherBlox Daily Observations layout. Learn more.

Left ArrowRight Arrow

Hourly Observations for July 31, 2017

Temp ( °F °C ) Dew Point ( °F °C ) Humidity (%) Winds ( mph kmh ) Pressure ( in mb ) Visibility ( mi km ) Precip ( " mm )
12:53 am 00:53 Clear 81 27.2 52 11.1 37 37 N 3 6 29.95 1014 10 16 0.00 0.00
1:53 am 01:53 Clear 76 24.4 54 12.2 47 47 Calm 29.95 1014 10 16 0.00 0.00
2:53 am 02:53 Clear 75 23.9 55 12.8 50 50 Calm 29.95 1014 10 16 0.00 0.00
3:53 am 03:53 Clear 74 23.3 57 13.9 56 56 NNW 6 9 29.95 1014 10 16 0.00 0.00
4:53 am 04:53 Clear 73 22.8 56 13.3 55 55 Calm 29.95 1014 10 16 0.00 0.00
5:53 am 05:53 Clear 70 21.1 56 13.3 61 61 Calm 29.95 1014 10 16 0.00 0.00
6:53 am 06:53 Sunny 71 21.7 56 13.3 59 59 Calm 29.96 1015 10 16 0.00 0.00
7:53 am 07:53 Sunny 76 24.4 58 14.4 54 54 Calm 29.96 1015 10 16 0.00 0.00
8:53 am 08:53 Sunny 82 27.8 56 13.3 41 41 Calm 29.97 1015 10 16 0.00 0.00
9:53 am 09:53 Sunny 87 30.6 56 13.3 35 35 WSW 3 6 29.96 1015 10 16 0.00 0.00
10:53 am 10:53 Sunny 91 32.8 55 12.8 30 30 S 6 9 29.95 1014 10 16 0.00 0.00
11:53 am 11:53 Sunny 93 33.9 55 12.8 28 28 Calm 29.95 1014 10 16 0.00 0.00
12:53 pm 12:53 Sunny 96 35.6 55 12.8 25 25 S 3 6 29.92 1013 10 16 0.00 0.00
1:53 pm 13:53 Sunny 100 37.8 52 11.1 20 20 Calm 29.90 1013 10 16 0.00 0.00
2:53 pm 14:53 Sunny 102 38.9 51 10.6 18 18 S 5 7 29.87 1012 10 16 0.00 0.00
3:53 pm 15:53 Hazy 103 39.4 52 11.1 18 18 SSE 8 13 29.85 1011 6 10 0.00 0.00
4:53 pm 16:53 Sunny with Smoke 105 40.6 52 11.1 17 17 SSE 8 13 29.83 1010 5 8 0.00 0.00
5:53 pm 17:53 Sunny with Smoke 105 40.6 54 12.2 18 18 S 10 17 29.82 1010 9 14 0.00 0.00
6:53 pm 18:53 Sunny with Smoke 102 38.9 57 13.9 23 23 SSE 10 17 29.81 1010 9 14 0.00 0.00
7:53 pm 19:53 Sunny with Smoke 96 35.6 59 15 29 29 SSE 10 17 29.82 1010 10 16 0.00 0.00
8:53 pm 20:53 Clear with Smoke 92 33.3 57 13.9 31 31 SE 5 7 29.84 1011 10 16 0.00 0.00
9:53 pm 21:53 Clear with Smoke 90 32.2 56 13.3 32 32 Calm 29.87 1011 10 16 0.00 0.00
10:53 pm 22:53 Clear with Smoke 87 30.6 56 13.3 35 35 NNE 6 9 29.88 1012 10 16 0.00 0.00
11:53 pm 23:53 Clear with Smoke 83 28.3 57 13.9 41 41 Calm 29.89 1012 10 16 0.00 0.00

Powered by AerisWeather